Weather History for Charlottesville, VA

Change the Weather History Date:

Wednesday, October 9, 2013

  Actual Average Record
Temperature  
Mean Temperature 54 °F 58 °F  
Max Temperature 59 °F 70 °F 92 °F (2007)
Min Temperature 49 °F 46 °F 27 °F (2001)
Degree Days  
Heating Degree Days 11 8  
Month to date heating degree days 22 57  
Since 1 July heating degree days 97 115  
Cooling Degree Days 0 1  
Month to date cooling degree days 37 9  
Year to date cooling degree days 1145 1030  
Growing Degree Days 4 (Base 50)    
Moisture  
Dew Point 49 °F    
Average Humidity 81    
Maximum Humidity 96    
Minimum Humidity 66    
Precipitation  
Precipitation 0.32 in 0.10 in 3.14 in (1976)
Month to date precipitation 1.45 1.01  
Year to date precipitation 35.62 33.63  
Sea Level Pressure  
Sea Level Pressure 30.26 in    
Wind  
Wind Speed 6 mph (NNE)    
Max Wind Speed 17 mph    
Max Gust Speed 21 mph    
Visibility 9 miles    
Events Rain    
T = Trace of Precipitation, MM = Missing Value Source: NWS Daily Summary

Daily Weather History Graph

Daily Weather History Graph

Search for Another Location

Airport:

Trip Planner

Search our weather history database for the weather conditions in past years. The results will help you decide how hot, cold, wet, or windy it might be!

Date:

Astronomy

Oct. 09, 2013 Rise Set
Actual Time 7:17 AM EDT 6:44 PM EDT
Civil Twilight 6:50 AM EDT 7:10 PM EDT
Nautical Twilight 6:20 AM EDT 7:41 PM EDT
Astronomical Twilight 5:49 AM EDT 8:11 PM EDT
Moon 12:07 PM EDT (10/9) 10:20 PM EDT (10/9)
Length of Visible Light 12h 20m
Length of Day
11h 27m
Waxing Crescent, 25% of the Moon is Illuminated
Oct 9
Waxing Crescent
Oct 11
First Quarter
Oct 18
Full
Oct 26
Last Quarter
Nov 3
New

Hourly Weather History & Observations

Time (EDT) Temp. Dew Point Humidity Pressure Visibility Wind Dir Wind Speed Gust Speed Precip Events Conditions
12:53 AM 51.1 °F 48.0 °F 89% 30.27 in 10.0 mi North 3.5 mph - N/A   Clear
1:53 AM 51.1 °F 48.0 °F 89% 30.27 in 10.0 mi Calm Calm - N/A   Clear
2:53 AM 50.0 °F 46.9 °F 89% 30.26 in 10.0 mi Calm Calm - N/A   Clear
3:53 AM 51.1 °F 46.9 °F 86% 30.26 in 10.0 mi Calm Calm - N/A   Clear
4:53 AM 50.0 °F 46.0 °F 86% 30.25 in 10.0 mi North 3.5 mph - N/A   Clear
5:53 AM 52.0 °F 45.0 °F 77% 30.26 in 10.0 mi Calm Calm - N/A   Clear
6:53 AM 51.1 °F 46.0 °F 83% 30.26 in 10.0 mi Calm Calm - N/A   Clear
7:53 AM 50.0 °F 46.0 °F 86% 30.29 in 10.0 mi NNE 6.9 mph - N/A   Clear
8:53 AM 55.0 °F 45.0 °F 69% 30.27 in 10.0 mi North 8.1 mph - N/A   Clear
9:53 AM 57.0 °F 46.9 °F 69% 30.31 in 10.0 mi NE 5.8 mph - N/A   Clear
10:53 AM 57.9 °F 46.9 °F 67% 30.31 in 10.0 mi NNE 13.8 mph - N/A   Clear
11:53 AM 57.9 °F 48.0 °F 70% 30.30 in 10.0 mi NNE 11.5 mph - N/A   Scattered Clouds
12:13 PM 57.2 °F 48.2 °F 72% 30.30 in 10.0 mi NNE 11.5 mph 19.6 mph N/A   Mostly Cloudy
12:39 PM 57.2 °F 48.2 °F 72% 30.29 in 10.0 mi NNE 15.0 mph 19.6 mph N/A   Scattered Clouds
12:53 PM 57.9 °F 48.9 °F 72% 30.28 in 10.0 mi North 10.4 mph - N/A   Clear
1:53 PM 59.0 °F 48.9 °F 69% 30.26 in 10.0 mi NNE 11.5 mph - N/A   Mostly Cloudy
2:44 PM 59.0 °F 50.0 °F 72% 30.26 in 10.0 mi NE 12.7 mph - N/A   Mostly Cloudy
2:53 PM 59.0 °F 48.9 °F 69% 30.26 in 10.0 mi NNE 12.7 mph - N/A   Mostly Cloudy
3:53 PM 57.0 °F 50.0 °F 77% 30.25 in 10.0 mi NNE 11.5 mph - 0.00 in Rain Light Rain
4:51 PM 55.4 °F 50.0 °F 82% 30.25 in 6.0 mi North 5.8 mph - 0.01 in Rain Light Rain
4:53 PM 55.0 °F 50.0 °F 83% 30.25 in 6.0 mi North 5.8 mph - 0.01 in Rain Light Rain
5:53 PM 55.0 °F 51.1 °F 86% 30.24 in 10.0 mi North 5.8 mph - 0.02 in Rain Light Rain
6:53 PM 54.0 °F 51.1 °F 90% 30.24 in 9.0 mi Calm Calm - 0.04 in Rain Light Rain
7:53 PM 53.1 °F 51.1 °F 93% 30.25 in 10.0 mi North 3.5 mph - 0.03 in Rain Light Rain
8:00 PM 53.6 °F 51.8 °F 94% 30.25 in 10.0 mi North 3.5 mph - 0.00 in Rain Light Rain
8:53 PM 53.1 °F 50.0 °F 89% 30.24 in 10.0 mi North 4.6 mph - 0.02 in Rain Light Rain
9:06 PM 51.8 °F 50.0 °F 94% 30.25 in 10.0 mi NNW 3.5 mph - 0.00 in Rain Light Rain
9:53 PM 52.0 °F 48.9 °F 89% 30.25 in 7.0 mi North 4.6 mph - 0.01 in Rain Light Rain
10:40 PM 51.8 °F 50.0 °F 94% 30.24 in 2.5 mi North 6.9 mph - 0.08 in Rain Rain
10:53 PM 52.0 °F 50.0 °F 93% 30.23 in 4.0 mi North 5.8 mph - 0.09 in Rain Light Rain
11:31 PM 51.8 °F 50.0 °F 94% 30.22 in 2.5 mi North 8.1 mph - 0.05 in Rain Rain
11:49 PM 51.8 °F 50.0 °F 94% 30.21 in 5.0 mi North 5.8 mph - 0.07 in Rain Light Rain
11:53 PM 51.1 °F 50.0 °F 96% 30.21 in 7.0 mi North 5.8 mph - 0.07 in Rain Light Rain